Time,TemperatureF,DewpointF,PressureIn,WindDirection,WindDirectionDegrees,WindSpeedMPH,WindSpeedGustMPH,Humidity,HourlyPrecipIn,Conditions,Clouds,dailyrainin,SoftwareType,DateUTC
2013-02-19 00:01:00,34.6,31.0,29.89,NNW,348,0.0,2.0,87,0.00,,,0.00,weatherlink.com 1.10,2013-02-19 08:01:00,
2013-02-19 00:16:00,34.4,31.0,29.89,West,273,1.0,2.0,87,0.00,,,0.00,weatherlink.com 1.10,2013-02-19 08:16:00,
2013-02-19 00:32:00,34.7,31.0,29.89,NW,312,0.0,3.0,87,0.00,,,0.00,weatherlink.com 1.10,2013-02-19 08:32:00,
2013-02-19 00:47:00,33.5,30.0,29.89,SSE,152,0.0,2.0,88,0.00,,,0.00,weatherlink.com 1.10,2013-02-19 08:47:00,
2013-02-19 03:02:00,32.4,30.0,29.85,SE,142,0.0,0.0,90,0.00,,,0.00,weatherlink.com 1.10,2013-02-19 11:02:00,
2013-02-19 03:17:00,32.0,30.0,29.85,SW,219,0.0,0.0,91,0.00,,,0.00,weatherlink.com 1.10,2013-02-19 11:17:00,
2013-02-19 03:32:00,32.2,30.0,29.85,SW,219,0.0,0.0,92,0.00,,,0.00,weatherlink.com 1.10,2013-02-19 11:32:00,
2013-02-19 03:48:00,32.5,31.0,29.85,SW,219,0.0,0.0,92,0.00,,,0.00,weatherlink.com 1.10,2013-02-19 11:48:00,
2013-02-19 04:03:00,33.7,32.0,29.84,SW,219,0.0,0.0,92,0.00,,,0.00,weatherlink.com 1.10,2013-02-19 12:03:00,
2013-02-19 04:18:00,34.4,32.0,29.83,WSW,257,0.0,0.0,90,0.00,,,0.00,weatherlink.com 1.10,2013-02-19 12:18:00,
2013-02-19 04:33:00,34.5,32.0,29.83,SE,132,0.0,0.0,90,0.00,,,0.00,weatherlink.com 1.10,2013-02-19 12:33:00,
2013-02-19 04:48:00,34.5,32.0,29.82,SE,132,0.0,0.0,91,0.00,,,0.00,weatherlink.com 1.10,2013-02-19 12:48:00,
2013-02-19 05:03:00,34.4,32.0,29.82,SE,132,0.0,0.0,92,0.00,,,0.00,weatherlink.com 1.10,2013-02-19 13:03:00,
2013-02-19 05:18:00,34.6,33.0,29.81,NW,311,0.0,0.0,93,0.00,,,0.00,weatherlink.com 1.10,2013-02-19 13:18:00,
2013-02-19 05:34:00,34.6,33.0,29.81,NW,311,0.0,0.0,93,0.00,,,0.00,weatherlink.com 1.10,2013-02-19 13:34:00,
2013-02-19 05:48:00,34.5,33.0,29.80,NW,323,0.0,0.0,93,0.00,,,0.00,weatherlink.com 1.10,2013-02-19 13:48:00,
2013-02-19 06:03:00,35.4,34.0,29.79,SE,134,1.0,5.0,95,0.00,,,0.00,weatherlink.com 1.10,2013-02-19 14:03:00,
2013-02-19 06:18:00,36.8,35.0,29.79,East,84,2.0,5.0,94,0.00,,,0.00,weatherlink.com 1.10,2013-02-19 14:18:00,
2013-02-19 06:33:00,37.4,36.0,29.78,ESE,109,0.0,4.0,93,0.00,,,0.00,weatherlink.com 1.10,2013-02-19 14:33:00,
2013-02-19 06:48:00,37.8,36.0,29.78,East,86,0.0,4.0,94,0.00,,,0.00,weatherlink.com 1.10,2013-02-19 14:48:00,
2013-02-19 07:03:00,37.6,36.0,29.78,East,84,1.0,2.0,93,0.00,,,0.00,weatherlink.com 1.10,2013-02-19 15:03:00,
2013-02-19 07:18:00,37.6,36.0,29.77,East,81,0.0,7.0,94,0.01,,,0.01,weatherlink.com 1.10,2013-02-19 15:18:00,
2013-02-19 07:33:00,37.6,36.0,29.77,SE,138,2.0,8.0,94,0.02,,,0.02,weatherlink.com 1.10,2013-02-19 15:33:00,
2013-02-19 07:48:00,37.7,36.0,29.76,ESE,110,1.0,4.0,94,0.03,,,0.03,weatherlink.com 1.10,2013-02-19 15:48:00,
2013-02-19 08:03:00,37.6,36.0,29.76,SE,140,1.0,5.0,94,0.03,,,0.03,weatherlink.com 1.10,2013-02-19 16:03:00,
2013-02-19 08:18:00,37.2,36.0,29.76,ESE,106,3.0,6.0,94,0.03,,,0.04,weatherlink.com 1.10,2013-02-19 16:18:00,
2013-02-19 08:33:00,37.0,36.0,29.76,East,95,1.0,2.0,94,0.03,,,0.05,weatherlink.com 1.10,2013-02-19 16:33:00,
2013-02-19 08:48:00,37.2,36.0,29.76,ESE,113,2.0,4.0,94,0.03,,,0.06,weatherlink.com 1.10,2013-02-19 16:48:00,
2013-02-19 09:03:00,37.2,36.0,29.76,ESE,115,1.0,5.0,94,0.03,,,0.06,weatherlink.com 1.10,2013-02-19 17:03:00,
2013-02-19 09:19:00,37.3,36.0,29.76,East,82,1.0,3.0,93,0.02,,,0.06,weatherlink.com 1.10,2013-02-19 17:19:00,
2013-02-19 09:33:00,37.6,36.0,29.75,ENE,67,0.0,3.0,93,0.01,,,0.06,weatherlink.com 1.10,2013-02-19 17:33:00,
2013-02-19 09:49:00,38.1,36.0,29.75,SE,124,2.0,5.0,92,0.00,,,0.06,weatherlink.com 1.10,2013-02-19 17:49:00,
2013-02-19 10:03:00,38.3,35.0,29.75,NNE,20,2.0,3.0,89,0.00,,,0.06,weatherlink.com 1.10,2013-02-19 18:03:00,
2013-02-19 10:18:00,39.1,36.0,29.74,NE,39,1.0,3.0,89,0.00,,,0.06,weatherlink.com 1.10,2013-02-19 18:18:00,
2013-02-19 10:48:00,42.1,37.0,29.74,ENE,64,1.0,6.0,83,0.00,,,0.06,weatherlink.com 1.10,2013-02-19 18:48:00,
2013-02-19 11:04:00,43.3,38.0,29.73,WNW,294,2.0,7.0,80,0.00,,,0.06,weatherlink.com 1.10,2013-02-19 19:04:00,
2013-02-19 11:19:00,43.1,36.0,29.74,NNW,330,0.0,5.0,75,0.00,,,0.06,weatherlink.com 1.10,2013-02-19 19:19:00,
2013-02-19 11:34:00,42.7,35.0,29.73,NNE,15,2.0,5.0,74,0.00,,,0.06,weatherlink.com 1.10,2013-02-19 19:34:00,
2013-02-19 11:49:00,43.6,35.0,29.73,ENE,71,2.0,7.0,73,0.00,,,0.06,weatherlink.com 1.10,2013-02-19 19:49:00,
2013-02-19 12:04:00,39.9,34.0,29.73,NW,307,3.0,7.0,78,0.00,,,0.06,weatherlink.com 1.10,2013-02-19 20:04:00,
2013-02-19 12:19:00,41.1,35.0,29.72,NE,34,2.0,6.0,78,0.00,,,0.06,weatherlink.com 1.10,2013-02-19 20:19:00,
2013-02-19 12:34:00,43.2,35.0,29.71,NE,54,4.0,7.0,72,0.00,,,0.06,weatherlink.com 1.10,2013-02-19 20:34:00,
2013-02-19 12:49:00,43.1,34.0,29.70,NW,304,2.0,5.0,71,0.00,,,0.06,weatherlink.com 1.10,2013-02-19 20:49:00,
2013-02-19 13:04:00,43.4,31.0,29.70,NNW,343,2.0,9.0,63,0.00,,,0.06,weatherlink.com 1.10,2013-02-19 21:04:00,
2013-02-19 13:19:00,44.8,32.0,29.70,NE,46,1.0,5.0,62,0.00,,,0.06,weatherlink.com 1.10,2013-02-19 21:19:00,
2013-02-19 13:34:00,42.3,34.0,29.71,ENE,69,3.0,7.0,71,0.00,,,0.06,weatherlink.com 1.10,2013-02-19 21:34:00,
2013-02-19 13:49:00,42.4,34.0,29.71,NE,41,2.0,5.0,71,0.00,,,0.06,weatherlink.com 1.10,2013-02-19 21:49:00,
2013-02-19 14:04:00,42.6,31.0,29.70,West,277,1.0,5.0,65,0.00,,,0.06,weatherlink.com 1.10,2013-02-19 22:04:00,
2013-02-19 14:19:00,42.8,31.0,29.70,SSW,205,5.0,7.0,64,0.00,,,0.06,weatherlink.com 1.10,2013-02-19 22:19:00,
2013-02-19 14:34:00,41.9,30.0,29.69,ESE,108,0.0,8.0,63,0.00,,,0.06,weatherlink.com 1.10,2013-02-19 22:34:00,
2013-02-19 14:49:00,41.3,27.0,29.70,ESE,106,1.0,6.0,58,0.00,,,0.06,weatherlink.com 1.10,2013-02-19 22:49:00,
2013-02-19 15:04:00,41.5,30.0,29.70,ENE,77,0.0,8.0,64,0.00,,,0.06,weatherlink.com 1.10,2013-02-19 23:04:00,
2013-02-19 15:19:00,40.6,30.0,29.70,West,277,1.0,8.0,65,0.00,,,0.06,weatherlink.com 1.10,2013-02-19 23:19:00,
2013-02-19 15:34:00,40.1,29.0,29.70,North,8,2.0,4.0,65,0.00,,,0.06,weatherlink.com 1.10,2013-02-19 23:34:00,
2013-02-19 15:49:00,40.1,28.0,29.69,ENE,69,6.0,8.0,63,0.00,,,0.06,weatherlink.com 1.10,2013-02-19 23:49:00,
2013-02-19 16:04:00,39.6,29.0,29.70,NE,40,0.0,5.0,66,0.00,,,0.06,weatherlink.com 1.10,2013-02-20 00:04:00,
2013-02-19 16:19:00,39.4,29.0,29.70,SSW,212,3.0,5.0,67,0.00,,,0.06,weatherlink.com 1.10,2013-02-20 00:19:00,
2013-02-19 16:34:00,39.1,30.0,29.69,NNE,15,3.0,7.0,69,0.00,,,0.06,weatherlink.com 1.10,2013-02-20 00:34:00,
2013-02-19 16:49:00,38.3,30.0,29.70,SE,140,1.0,7.0,73,0.00,,,0.06,weatherlink.com 1.10,2013-02-20 00:49:00,
2013-02-19 17:04:00,37.5,30.0,29.70,ENE,63,0.0,3.0,75,0.00,,,0.06,weatherlink.com 1.10,2013-02-20 01:04:00,
2013-02-19 17:19:00,36.8,30.0,29.70,SW,231,0.0,3.0,75,0.00,,,0.06,weatherlink.com 1.10,2013-02-20 01:19:00,
2013-02-19 17:34:00,36.3,30.0,29.70,SSW,212,0.0,5.0,77,0.00,,,0.06,weatherlink.com 1.10,2013-02-20 01:34:00,
2013-02-19 17:49:00,35.6,29.0,29.71,ENE,74,0.0,6.0,77,0.00,,,0.06,weatherlink.com 1.10,2013-02-20 01:49:00,
2013-02-19 18:04:00,35.0,29.0,29.72,ENE,71,1.0,7.0,78,0.00,,,0.06,weatherlink.com 1.10,2013-02-20 02:04:00,
2013-02-19 18:19:00,34.9,29.0,29.72,WNW,299,0.0,3.0,79,0.00,,,0.06,weatherlink.com 1.10,2013-02-20 02:19:00,
2013-02-19 18:34:00,34.7,29.0,29.72,SE,127,0.0,3.0,80,0.00,,,0.06,weatherlink.com 1.10,2013-02-20 02:34:00,
2013-02-19 18:49:00,34.1,29.0,29.73,SE,145,0.0,1.0,81,0.00,,,0.06,weatherlink.com 1.10,2013-02-20 02:49:00,
2013-02-19 19:04:00,33.1,28.0,29.73,SSE,163,0.0,2.0,82,0.00,,,0.06,weatherlink.com 1.10,2013-02-20 03:04:00,
2013-02-19 19:19:00,32.8,28.0,29.74,East,85,0.0,2.0,83,0.00,,,0.06,weatherlink.com 1.10,2013-02-20 03:19:00,
2013-02-19 19:34:00,32.7,28.0,29.74,SSE,155,0.0,2.0,84,0.00,,,0.06,weatherlink.com 1.10,2013-02-20 03:34:00,
2013-02-19 20:05:00,34.3,30.0,29.75,ESE,110,0.0,4.0,83,0.00,,,0.06,weatherlink.com 1.10,2013-02-20 04:05:00,
2013-02-19 20:19:00,34.7,30.0,29.76,NW,309,0.0,2.0,82,0.00,,,0.06,weatherlink.com 1.10,2013-02-20 04:19:00,
2013-02-19 20:34:00,34.4,30.0,29.76,ENE,65,0.0,1.0,83,0.00,,,0.06,weatherlink.com 1.10,2013-02-20 04:34:00,
2013-02-19 20:49:00,33.4,29.0,29.75,East,89,0.0,1.0,84,0.00,,,0.06,weatherlink.com 1.10,2013-02-20 04:49:00,
2013-02-19 21:05:00,31.8,28.0,29.76,East,89,0.0,1.0,86,0.00,,,0.06,weatherlink.com 1.10,2013-02-20 05:05:00,
2013-02-19 21:19:00,31.0,28.0,29.76,South,188,0.0,0.0,89,0.00,,,0.06,weatherlink.com 1.10,2013-02-20 05:19:00,
2013-02-19 21:34:00,30.7,28.0,29.77,South,171,0.0,2.0,89,0.00,,,0.06,weatherlink.com 1.10,2013-02-20 05:34:00,
2013-02-19 21:50:00,30.7,28.0,29.77,SW,226,0.0,2.0,90,0.00,,,0.06,weatherlink.com 1.10,2013-02-20 05:50:00,
2013-02-19 22:04:00,30.5,28.0,29.78,West,266,0.0,3.0,90,0.00,,,0.06,weatherlink.com 1.10,2013-02-20 06:04:00,
2013-02-19 22:19:00,30.4,28.0,29.78,SW,221,0.0,1.0,90,0.00,,,0.06,weatherlink.com 1.10,2013-02-20 06:19:00,
2013-02-19 22:34:00,30.4,28.0,29.79,SE,131,0.0,2.0,91,0.00,,,0.06,weatherlink.com 1.10,2013-02-20 06:34:00,
2013-02-19 22:49:00,30.3,28.0,29.79,SSE,160,0.0,2.0,91,0.00,,,0.06,weatherlink.com 1.10,2013-02-20 06:49:00,
2013-02-19 23:05:00,30.2,28.0,29.79,SSW,201,0.0,1.0,91,0.00,,,0.06,weatherlink.com 1.10,2013-02-20 07:05:00,
2013-02-19 23:19:00,30.1,28.0,29.80,SSE,162,1.0,1.0,91,0.00,,,0.06,weatherlink.com 1.10,2013-02-20 07:19:00,
2013-02-19 23:34:00,30.0,28.0,29.80,SSW,200,0.0,1.0,90,0.00,,,0.06,weatherlink.com 1.10,2013-02-20 07:34:00,
2013-02-19 23:49:00,29.7,27.0,29.81,SW,217,2.0,2.0,91,0.00,,,0.06,weatherlink.com 1.10,2013-02-20 07:49:00,